Location: Wingville
(42.9917°N, 90.4915°W)
Time: 03:45:59
(UTC+00:00)

X-37B - Pass Details

Date: 29 January 2022
Orbit: 328 x 343 km, 45.0° (Epoch: 15 May)

Event Time Altitude Azimuth Distance (km) Brightness Sun altitude
Rises 23:57:52 0° 230° (SW) 2,108 5.7 -9.1°
Reaches altitude 10° 23:59:58 10° 221° (SW) 1,270 4.2 -9.5°
Maximum altitude 00:02:36 35° 153° (SSE) 566 1.3 -10.0°
Enters shadow 00:04:29 16° 92° (E) 990 2.0 -10.3°
